{"data":{"norad_id":54137,"epoch":"2026-09-20T00:25:30.779040Z","epoch_age_seconds":68789,"freshness":"FRESH","line1":"1 54137U 22138AA  26263.01771735  .00000077  00000+0  15934-3 0  9994","line2":"2 54137  87.9106 286.0745 0002101  94.3989 265.7383 13.19726680189343","mean_motion":13.1972668,"eccentricity":0.0002101,"inclination_deg":87.9106,"raan_deg":286.0745,"arg_perigee_deg":94.3989,"mean_anomaly_deg":265.7383,"bstar":0.00015934,"rev_number":18934,"period_min":109.1135021988,"perigee_km":1184.1749571783,"apogee_km":1187.3533084343,"semimajor_km":7563.9011328063,"source":"CELESTRAK","updated_at":"2026-09-20T09:00:44.720172Z"}}